H1 CPF 2 NER 2025 10 17 9 290 01 glonass132 H2 1401201 9132 39620 2025 10 17 0 0 0 2025 10 20 23 45 0 900 1 1 0 0 0 1 H9 10 0 60965 0.00000 0 -7219851.445 23038220.925 8313055.573 10 0 60965 900.00000 0 -7396303.288 23872783.615 5223694.846 10 0 60965 1800.00000 0 -7374427.513 24357151.749 2033144.648 10 0 60965 2700.00000 0 -7202539.676 24460986.778 -1196798.495 10 0 60965 3600.00000 0 -6934387.211 24166383.949 -4403538.861 10 0 60965 4500.00000 0 -6626652.167 23468702.499 -7524888.346 10 0 60965 5400.00000 0 -6336334.419 22376860.895 -10500268.560 10 0 60965 6300.00000 0 -6118125.724 20913083.289 -13271885.088 10 0 60965 7200.00000 0 -6021885.638 19112106.154 -15785851.062 10 0 60965 8100.00000 0 -6090326.412 17019876.645 -17993238.057 10 0 60965 9000.00000 0 -6357005.463 14691795.460 -19851033.615 10 0 60965 9900.00000 0 -6844711.404 12190576.219 -21322986.320 10 0 60965 10800.00000 0 -7564313.307 9583809.523 -22380321.486 10 0 60965 11700.00000 0 -8514123.498 6941332.390 -23002312.942 10 0 60965 12600.00000 0 -9679802.757 4332512.253 -23176699.036 10 0 60965 13500.00000 0 -11034813.867 1823558.407 -22899933.987 10 0 60965 14400.00000 0 -12541406.334 -525027.048 -22177268.830 10 0 60965 15300.00000 0 -14152092.486 -2660752.295 -21022659.474 10 0 60965 16200.00000 0 -15811554.065 -4541096.616 -19458502.834 10 0 60965 17100.00000 0 -17458899.961 -6135046.893 -17515205.392 10 0 60965 18000.00000 0 -19030180.287 -7424145.476 -15230592.091 10 0 60965 18900.00000 0 -20461050.798 -8403005.839 -12649166.769 10 0 60965 19800.00000 0 -21689474.769 -9079275.015 -9821238.646 10 0 60965 20700.00000 0 -22658347.520 -9473045.451 -6801932.334 10 0 60965 21600.00000 0 -23317931.835 -9615742.527 -3650101.523 10 0 60965 22500.00000 0 -23628000.511 -9548536.495 -427168.646 10 0 60965 23400.00000 0 -23559594.763 -9320348.007 2804085.436 10 0 60965 24300.00000 0 -23096323.782 -8985533.772 5980756.667 10 0 60965 25200.00000 0 -22235150.567 -8601352.390 9041052.469 10 0 60965 26100.00000 0 -20986631.197 -8225319.546 11925500.598 10 0 60965 27000.00000 0 -19374598.209 -7912565.966 14578107.777 10 0 60965 27900.00000 0 -17435302.340 -7713310.936 16947445.261 10 0 60965 28800.00000 0 -15216049.730 -7670558.588 18987640.286 10 0 60965 29700.00000 0 -12773392.638 -7818114.127 20659254.871 10 0 60965 30600.00000 0 -10170950.058 -8179003.111 21930035.980 10 0 60965 31500.00000 0 -7476949.476 -8764359.469 22775523.964 10 0 60965 32400.00000 0 -4761591.978 -9572828.005 23179509.094 10 0 60965 33300.00000 0 -2094349.498 -10590505.556 23134329.027 10 0 60965 34200.00000 0 458694.773 -11791422.511 22641002.913 10 0 60965 35100.00000 0 2837354.219 -13138544.164 21709200.793 10 0 60965 36000.00000 0 4989592.853 -14585250.047 20357049.653 10 0 60965 36900.00000 0 6873434.309 -16077229.827 18610780.286 10 0 60965 37800.00000 0 8458448.683 -17554717.358 16504221.683 10 0 60965 38700.00000 0 9726757.501 -18954970.613 14078152.200 10 0 60965 39600.00000 0 10673516.704 -20214894.987 11379519.258 10 0 60965 40500.00000 0 11306858.859 -21273701.468 8460541.584 10 0 60965 41400.00000 0 11647297.959 -22075489.384 5377710.192 10 0 60965 42300.00000 0 11726622.217 -22571646.250 2190706.341 10 0 60965 43200.00000 0 11586321.406 -22722964.389 -1038743.655 10 0 60965 44100.00000 0 11275614.711 -22501385.371 -4248055.437 10 0 60965 45000.00000 0 10849161.721 -21891298.391 -7374993.038 10 0 60965 45900.00000 0 10364552.668 -20890336.972 -10358871.758 10 0 60965 46800.00000 0 9879683.472 -19509639.055 -13141734.350 10 0 60965 47700.00000 0 9450126.244 -17773557.791 -15669477.622 10 0 60965 48600.00000 0 9126606.423 -15718833.204 -17892907.424 10 0 60965 49500.00000 0 8952693.519 -13393257.436 -19768701.225 10 0 60965 50400.00000 0 8962803.719 -10853887.555 -21260259.114 10 0 60965 51300.00000 0 9180599.789 -8164878.945 -22338426.191 10 0 60965 52200.00000 0 9617857.137 -5395028.332 -22982071.676 10 0 60965 53100.00000 0 10273845.430 -2615127.940 -23178512.751 10 0 60965 54000.00000 0 11135253.511 104759.616 -22923774.120 10 0 60965 54900.00000 0 12176662.449 2697992.448 -22222677.339 10 0 60965 55800.00000 0 13361548.241 5103894.417 -21088757.324 10 0 60965 56700.00000 0 14643773.160 7270047.759 -19544006.784 10 0 60965 57600.00000 0 15969503.735 9154237.504 -17618452.802 10 0 60965 58500.00000 0 17279474.838 10725966.221 -15349573.268 10 0 60965 59400.00000 0 18511504.337 11967475.826 -12781564.254 10 0 60965 60300.00000 0 19603151.615 12874233.979 -9964472.651 10 0 60965 61200.00000 0 20494406.847 13454865.434 -6953211.445 10 0 60965 62100.00000 0 21130296.295 13730532.434 -3806477.641 10 0 60965 63000.00000 0 21463292.377 13733791.897 -585595.042 10 0 60965 63900.00000 0 21455425.576 13506979.540 2646694.137 10 0 60965 64800.00000 0 21080008.132 13100191.384 5827463.809 10 0 60965 65700.00000 0 20322896.248 12568950.135 8894839.270 10 0 60965 66600.00000 0 19183237.484 11971657.189 11789207.844 10 0 60965 67500.00000 0 17673672.150 11366939.721 14454380.526 10 0 60965 68400.00000 0 15819980.831 10811006.249 16838681.622 10 0 60965 69300.00000 0 13660193.691 10355123.061 18895945.289 10 0 60965 70200.00000 0 11243199.670 10043318.124 20586400.255 10 0 60965 71100.00000 0 8626914.452 9910408.744 21877426.645 10 0 60965 72000.00000 0 5876084.025 9980435.171 22744171.617 10 0 60965 72900.00000 0 3059815.266 10265564.783 23170013.530 10 0 60965 73800.00000 0 248935.676 10765511.621 23146867.299 10 0 60965 74700.00000 0 -2486709.171 11467494.459 22675326.531 10 0 60965 75600.00000 0 -5080909.862 12346734.250 21764640.938 10 0 60965 76500.00000 0 -7473590.929 13367469.628 20432530.301 10 0 60965 77400.00000 0 -9613050.681 14484447.883 18704838.976 10 0 60965 78300.00000 0 -11457852.330 15644829.375 16615037.560 10 0 60965 79200.00000 0 -12978289.969 16790426.424 14203580.852 10 0 60965 80100.00000 0 -14157370.205 17860183.886 11517133.722 10 0 60965 81000.00000 0 -14991270.070 18792798.581 8607678.792 10 0 60965 81900.00000 0 -15489253.150 19529368.768 5531522.025 10 0 60965 82800.00000 0 -15673048.043 20015963.271 2348214.327 10 0 60965 83700.00000 0 -15575715.442 20206002.857 -880591.012 10 0 60965 84600.00000 0 -15240051.285 20062353.816 -4092323.791 10 0 60965 85500.00000 0 -14716592.767 19559045.254 -7224702.919 10 0 60966 0.00000 0 -14061310.776 18682537.062 -10216939.780 10 0 60966 900.00000 0 -13333085.162 17432483.287 -13010917.338 10 0 60966 1800.00000 0 -12591069.873 15821958.291 -15552318.122 10 0 60966 2700.00000 0 -11892057.767 13877132.611 -17791684.334 10 0 60966 3600.00000 0 -11287957.249 11636410.963 -19685385.187 10 0 60966 4500.00000 0 -10823487.245 9149065.920 -21196473.827 10 0 60966 5400.00000 0 -10534188.502 6473422.428 -22295416.406 10 0 60966 6300.00000 0 -10444835.990 3674667.172 -22960678.535 10 0 60966 7200.00000 0 -10568320.558 822372.816 -23179156.950 10 0 60966 8100.00000 0 -10905048.229 -2012160.724 -22946447.248 10 0 60966 9000.00000 0 -11442883.813 -4758637.831 -22266941.599 10 0 60966 9900.00000 0 -12157642.427 -7350457.963 -21153753.657 10 0 60966 10800.00000 0 -13014109.250 -9727253.491 -19628471.283 10 0 60966 11700.00000 0 -13967545.220 -11837168.570 -17720741.146 10 0 60966 12600.00000 0 -14965615.482 -13638783.572 -15467692.714 10 0 60966 13500.00000 0 -15950659.074 -15102604.516 -12913212.603 10 0 60966 14400.00000 0 -16862203.447 -16212055.188 -10107083.417 10 0 60966 15300.00000 0 -17639616.621 -16963930.767 -7104004.337 10 0 60966 16200.00000 0 -18224783.645 -17368294.759 -3962513.311 10 0 60966 17100.00000 0 -18564692.849 -17447824.884 -743832.991 10 0 60966 18000.00000 0 -18613821.158 -17236637.184 2489335.713 10 0 60966 18900.00000 0 -18336216.480 -16778639.978 5674047.468 10 0 60966 19800.00000 0 -17707188.320 -16125489.315 8748348.320 10 0 60966 20700.00000 0 -16714534.767 -15334234.418 11652488.098 10 0 60966 21600.00000 0 -15359254.049 -14464754.469 14330084.974 10 0 60966 22500.00000 0 -13655710.992 -13577096.464 16729219.114 10 0 60966 23400.00000 0 -11631251.930 -12728827.439 18803434.208 10 0 60966 24300.00000 0 -9325284.859 -11972513.025 20512628.027 10 0 60966 25200.00000 0 -6787863.939 -11353428.230 21823815.832 10 0 60966 26100.00000 0 -4077837.826 -10907595.936 22711753.172 10 0 60966 27000.00000 0 -1260639.053 -10660234.261 23159407.649 10 0 60966 27900.00000 0 1594194.019 -10624676.441 23158272.175 10 0 60966 28800.00000 0 4415660.597 -10801807.037 22708515.148 10 0 60966 29700.00000 0 7133997.876 -11180036.662 21818965.924 10 0 60966 30600.00000 0 9683328.232 -11735815.250 20506936.694 10 0 60966 31500.00000 0 12004145.344 -12434661.733 18797884.659 10 0 60966 32400.00000 0 14045538.251 -13232666.794 16724920.971 10 0 60966 33300.00000 0 15767063.008 -14078406.039 14328175.467 10 0 60966 34200.00000 0 17140185.983 -14915183.994 11654028.691 10 0 60966 35100.00000 0 18149240.236 -15683515.668 8754225.009 10 0 60966 36000.00000 0 18791856.225 -16323742.423 5684882.808 10 0 60966 36900.00000 0 19078849.554 -16778673.083 2505419.794 10 0 60966 37800.00000 0 19033570.748 -16996139.817 -722586.859 10 0 60966 38700.00000 0 18690744.257 -16931361.496 -3936584.349 10 0 60966 39600.00000 0 18094845.092 -16549014.776 -7074249.756 10 0 60966 40500.00000 0 17298080.809 -15824925.001 -10074694.288 10 0 60966 41400.00000 0 16358063.210 -14747304.501 -12879643.136 10 0 60966 42300.00000 0 15335267.261 -13317484.488 -15434567.979 10 0 60966 43200.00000 0 14290383.904 -11550107.743 -17689750.013 10 0 60966 44100.00000 0 13281678.102 -9472771.696 -19601252.547 10 0 60966 45000.00000 0 12362463.529 -7125134.473 -21131783.793 10 0 60966 45900.00000 0 11578800.615 -4557519.036 -22251432.619 10 0 60966 46800.00000 0 10967515.494 -1829071.584 -22938262.281 10 0 60966 47700.00000 0 10554624.085 994450.650 -23178749.925 10 0 60966 48600.00000 0 10354228.603 3843171.351 -22968062.480 10 0 60966 49500.00000 0 10367933.951 6645763.940 -22310162.765 10 0 60966 50400.00000 0 10584809.541 9332186.511 -21217742.822 10 0 60966 51300.00000 0 10981898.920 11836369.069 -19711984.948 10 0 60966 52200.00000 0 11525256.272 14098740.814 -17822154.312 10 0 60966 53100.00000 0 12171466.268 16068491.657 -15585030.525 10 0 60966 54000.00000 0 12869582.892 17705473.085 -13044188.945 10 0 60966 54900.00000 0 13563404.736 18981658.622 -10249145.726 10 0 60966 55800.00000 0 14193989.578 19882102.719 -7254383.721 10 0 60966 56700.00000 0 14702300.575 20405358.262 -4118278.996 10 0 60966 57600.00000 0 15031870.634 20563336.073 -901949.969 10 0 60966 58500.00000 0 15131370.665 20380613.648 2331947.004 10 0 60966 59400.00000 0 14956971.659 19893224.023 5520450.652 10 0 60966 60300.00000 0 14474399.520 19146977.849 8601531.029 10 0 60966 61200.00000 0 13660595.039 18195391.543 11515303.584 10 0 60966 62100.00000 0 12504908.522 17097310.921 14205196.578 10 0 60966 63000.00000 0 11009778.704 15914332.194 16619048.684 10 0 60966 63900.00000 0 9190867.667 14708130.238 18710115.470 10 0 60966 64800.00000 0 7076646.587 13537807.258 20437965.787 10 0 60966 65700.00000 0 4707450.119 12457373.304 21769251.731 10 0 60966 66600.00000 0 2134039.371 11513463.858 22678338.571 10 0 60966 67500.00000 0 -584266.514 10743389.068 23147784.105 10 0 60966 68400.00000 0 -3381812.640 10173594.831 23168659.764 10 0 60966 69300.00000 0 -6189092.815 9818598.415 22740708.807 10 0 60966 70200.00000 0 -8935394.183 9680441.416 21872339.813 10 0 60966 71100.00000 0 -11551493.841 9748681.367 20580456.468 10 0 60966 72000.00000 0 -13972297.381 10000921.135 18890127.415 10 0 60966 72900.00000 0 -16139311.842 10403853.180 16834102.502 10 0 60966 73800.00000 0 -18002852.396 10914774.619 14452184.356 10 0 60966 74700.00000 0 -19523892.816 11483509.747 11790466.644 10 0 60966 75600.00000 0 -20675484.266 12054659.839 8900452.718 10 0 60966 76500.00000 0 -21443684.431 12570086.433 5838070.516 10 0 60966 77400.00000 0 -21827958.916 12971524.464 2662601.636 10 0 60966 78300.00000 0 -21841038.443 13203215.901 -564455.758 10 0 60966 79200.00000 0 -21508237.731 13214453.352 -3780569.108 10 0 60966 80100.00000 0 -20866264.253 12961926.448 -6923376.422 10 0 60966 81000.00000 0 -19961566.277 12411771.614 -9931891.142 10 0 60966 81900.00000 0 -18848288.906 11541237.867 -12747683.746 10 0 60966 82800.00000 0 -17585923.370 10339896.984 -15316017.130 10 0 60966 83700.00000 0 -16236747.870 8810345.194 -17586913.575 10 0 60966 84600.00000 0 -14863167.157 6968364.650 -19516132.277 10 0 60966 85500.00000 0 -13525062.608 4842535.432 -21066037.993 10 0 60967 0.00000 0 -12277264.345 2473312.094 -22206343.326 10 0 60967 900.00000 0 -11167251.350 -88400.317 -22914710.146 10 0 60967 1800.00000 0 -10233178.387 -2783110.149 -23177196.274 10 0 60967 2700.00000 0 -9502311.094 -5544971.103 -22988540.033 10 0 60967 3600.00000 0 -8989937.428 -8304287.349 -22352274.604 10 0 60967 4500.00000 0 -8698801.266 -10990189.354 -21280669.814 10 0 60967 5400.00000 0 -8619082.651 -13533369.006 -19794501.480 10 0 60967 6300.00000 0 -8728925.877 -15868759.893 -17922652.070 10 0 60967 7200.00000 0 -8995493.185 -17938050.465 -15701549.880 10 0 60967 8100.00000 0 -9376499.309 -19691924.587 -13174457.332 10 0 60967 9000.00000 0 -9822161.362 -21091935.241 -10390622.290 10 0 60967 9900.00000 0 -10277480.553 -22111932.558 -7404309.311 10 0 60967 10800.00000 0 -10684757.847 -22738986.281 -4273730.506 10 0 60967 11700.00000 0 -10986235.446 -22973764.351 -1059897.904 10 0 60967 12600.00000 0 -11126750.621 -22830352.583 2174578.928 10 0 60967 13500.00000 0 -11056287.849 -22335524.395 5366725.120 10 0 60967 14400.00000 0 -10732319.887 -21527493.081 8454437.158 10 0 60967 15300.00000 0 -10121837.637 -20454201.148 11377698.624 10 0 60967 16200.00000 0 -9202982.369 -19171220.757 14079750.411 10 0 60967 17100.00000 0 -7966211.139 -17739355.490 16508192.224 10 0 60967 18000.00000 0 -6414946.379 -16222045.799 18615993.935 10 0 60967 18900.00000 0 -4565682.652 -14682688.101 20362397.730 10 0 60967 19800.00000 0 -2447546.524 -13181980.370 21713694.532 10 0 60967 20700.00000 0 -101328.345 -11775405.163 22643861.040 10 0 60967 21600.00000 0 2421973.443 -10510954.519 23135046.601 10 0 60967 22500.00000 0 5063034.928 -9427190.421 23177902.174 10 0 60967 23400.00000 0 7756438.426 -8551720.077 22771746.534 10 0 60967 24300.00000 0 10433161.467 -7900147.774 21924567.790 10 0 60967 25200.00000 0 13023221.015 -7475545.100 20652861.107 10 0 60967 26100.00000 0 15458364.793 -7268460.054 18981306.212 10 0 60967 27000.00000 0 17674699.764 -7257463.277 16942290.958 10 0 60967 27900.00000 0 19615150.502 -7410207.705 14575289.713 10 0 60967 28800.00000 0 21231646.936 -7684956.874 11926107.831 10 0 60967 29700.00000 0 22486951.943 -8032517.801 9046005.804 10 0 60967 30600.00000 0 23356053.785 -8398497.671 5990718.856 10 0 60967 31500.00000 0 23827065.970 -8725789.998 2819389.817 10 0 60967 32400.00000 0 23901597.276 -8957186.206 -406565.157 10 0 60967 33300.00000 0 23594576.297 -9038003.048 -3624636.987 10 0 60967 34200.00000 0 22933537.450 -8918615.266 -6772427.981 10 0 60967 35100.00000 0 21957397.643 -8556786.437 -9788857.181 10 0 60967 36000.00000 0 20714774.115 -7919699.004 -12615343.615 10 0 60967 36900.00000 0 19261913.177 -6985596.683 -15196944.459 10 0 60967 37800.00000 0 17660316.025 -5744968.386 -17483425.891 10 0 60967 38700.00000 0 15974160.636 -4201221.739 -19430245.519 10 0 60967 39600.00000 0 14267627.555 -2370815.488 -20999426.838 10 0 60967 40500.00000 0 12602241.601 -282842.742 -22160308.219 10 0 60967 41400.00000 0 11034341.056 2021920.050 -22890151.230 10 0 60967 42300.00000 0 9612780.780 4492460.886 -23174595.745 10 0 60967 43200.00000 0 8376966.008 7069418.309 -23007952.198 10 0 60967 44100.00000 0 7355299.811 9687328.651 -22393324.463 10 0 60967 45000.00000 0 6564109.895 12277141.719 -21342560.053 10 0 60967 45900.00000 0 6007100.196 14768900.525 -19876027.806 10 0 60967 46800.00000 0 5675350.514 17094473.328 -18022226.583 10 0 60967 47700.00000 0 5547864.139 19190223.541 -15817232.042 10 0 60967 48600.00000 0 5592639.956 20999505.336 -13303991.958 10 0 60967 49500.00000 0 5768223.020 22474879.837 -10531483.783 10 0 60967 50400.00000 0 6025666.924 23579958.360 -7553751.286 10 0 60967 51300.00000 0 6310823.528 24290795.021 -4428839.791 10 0 60967 52200.00000 0 6566861.404 24596770.159 -1217651.823 10 0 60967 53100.00000 0 6736904.550 24500927.848 2017253.150 10 0 60967 54000.00000 0 6766677.797 24019754.221 5212890.047 10 0 60967 54900.00000 0 6607045.271 23182407.236 8307085.180 10 0 60967 55800.00000 0 6216333.130 22029432.014 11239693.534 10 0 60967 56700.00000 0 5562337.407 20611017.614 13953771.722 10 0 60967 57600.00000 0 4623931.643 18984870.347 16396683.322 10 0 60967 58500.00000 0 3392206.379 17213794.577 18521115.062 10 0 60967 59400.00000 0 1871092.718 15363083.656 20285984.687 10 0 60967 60300.00000 0 77444.144 13497830.935 21657223.844 10 0 60967 61200.00000 0 -1959426.445 11680273.366 22608422.169 10 0 60967 62100.00000 0 -4198734.823 9967278.019 23121321.676 10 0 60967 63000.00000 0 -6589697.364 8408075.187 23186153.523 10 0 60967 63900.00000 0 -9073425.763 7042330.909 22801812.195 10 0 60967 64800.00000 0 -11585166.387 5898637.251 21975865.023 10 0 60967 65700.00000 0 -14056792.254 4993481.153 20724397.800 10 0 60967 66600.00000 0 -16419445.462 4330732.814 19071699.971 10 0 60967 67500.00000 0 -18606221.920 3901673.204 17049795.523 10 0 60967 68400.00000 0 -20554788.503 3685558.174 14697828.241 10 0 60967 69300.00000 0 -22209825.428 3650694.686 12061312.475 10 0 60967 70200.00000 0 -23525193.620 3755983.604 9191262.893 10 0 60967 71100.00000 0 -24465737.858 3952864.353 6143218.869 10 0 60967 72000.00000 0 -25008651.171 4187579.970 2976181.255 10 0 60967 72900.00000 0 -25144343.763 4403667.730 -248519.006 10 0 60967 73800.00000 0 -24876779.940 4544570.851 -3468399.464 10 0 60967 74700.00000 0 -24223268.410 4556261.456 -6621029.774 10 0 60967 75600.00000 0 -23213713.890 4389764.107 -9645237.491 10 0 60967 76500.00000 0 -21889360.388 4003473.036 -12482292.937 10 0 60967 77400.00000 0 -20301077.737 3365164.398 -15077050.099 10 0 60967 78300.00000 0 -18507262.219 2453617.351 -17379021.293 10 0 60967 79200.00000 0 -16571438.310 1259773.861 -19343364.422 10 0 60967 80100.00000 0 -14559661.415 -212613.756 -20931763.189 10 0 60967 81000.00000 0 -12537829.861 -1946877.167 -22113182.640 10 0 60967 81900.00000 0 -10569018.527 -3913875.187 -22864484.754 10 0 60967 82800.00000 0 -8710945.751 -6072969.637 -23170891.350 10 0 60967 83700.00000 0 -7013679.774 -8373495.243 -23026284.547 10 0 60967 84600.00000 0 -5517681.045 -10756663.988 -22433338.061 10 0 60967 85500.00000 0 -4252262.769 -13157825.651 -21403475.911 10 0 60968 0.00000 0 -3234534.597 -15508990.745 -19956658.617 10 0 60968 900.00000 0 -2468873.384 -17741511.959 -18120999.451 10 0 60968 1800.00000 0 -1946944.433 -19788808.695 -15932219.654 10 0 60968 2700.00000 0 -1648270.063 -21589024.324 -13432950.329 10 0 60968 3600.00000 0 -1541322.124 -23087500.942 -10671896.431 10 0 60968 4500.00000 0 -1585090.593 -24238968.257 -7702878.822 10 0 60968 5400.00000 0 -1731060.526 -25009353.762 -4583773.926 10 0 60968 6300.00000 0 -1925511.964 -25377137.718 -1375372.671 10 0 60968 7200.00000 0 -2112043.483 -25334195.825 1859817.650 10 0 60968 8100.00000 0 -2234210.540 -24886094.577 5058803.827 10 0 60968 9000.00000 0 -2238165.061 -24051827.710 8159344.072 10 0 60968 9900.00000 0 -2075182.928 -22863006.119 11101166.868 10 0 60968 10800.00000 0 -1703971.251 -21362536.876 13827146.628 10 0 60968 11700.00000 0 -1092657.163 -19602848.489 16284412.844 10 0 60968 12600.00000 0 -220373.884 -17643738.495 18425371.051 10 0 60968 13500.00000 0 921622.692 -15549934.847 20208616.353 10 0 60968 14400.00000 0 2329353.528 -13388473.986 21599722.718 10 0 60968 15300.00000 0 3986056.803 -11226005.396 22571894.067 10 0 60968 16200.00000 0 5862671.189 -9126134.719 23106466.149 10 0 60968 17100.00000 0 7918841.578 -7146915.136 23193251.105 10 0 60968 18000.00000 0 10104405.312 -5338589.930 22830719.622 10 0 60968 18900.00000 0 12361297.383 -3741678.208 22026018.471 10 0 60968 19800.00000 0 14625796.103 -2385481.251 20794824.029 10 0 60968 20700.00000 0 16831016.880 -1287069.472 19161035.147 10 0 60968 21600.00000 0 18909551.815 -450790.103 17156311.374 10 0 60968 22500.00000 0 20796146.831 131685.621 14819465.056 10 0 60968 23400.00000 0 22430306.401 480779.046 12195718.372 10 0 60968 24300.00000 0 23758718.764 627909.779 9335838.655 10 0 60968 25200.00000 0 24737401.617 613936.686 6295167.560 10 0 60968 26100.00000 0 25333479.380 487199.703 3132561.727 10 0 60968 27000.00000 0 25526518.090 301244.509 -90735.694 10 0 60968 27900.00000 0 25309361.885 112325.522 -3312271.723 10 0 60968 28800.00000 0 24688435.447 -23207.917 -6469586.387 10 0 60968 29700.00000 0 23683498.826 -51532.051 -9501418.855 10 0 60968 30600.00000 0 22326863.673 76134.822 -12348893.804 10 0 60968 31500.00000 0 20662102.422 401226.656 -14956664.958 10 0 60968 32400.00000 0 18742303.153 955833.044 -17273993.504 10 0 60968 33300.00000 0 16627941.977 1761097.279 -19255740.138 10 0 60968 34200.00000 0 14384460.945 2826078.458 -20863251.006 10 0 60968 35100.00000 0 12079652.040 4147127.645 -22065119.812 10 0 60968 36000.00000 0 9780956.067 5707806.674 -22837810.642 10 0 60968 36900.00000 0 7552789.145 7479355.401 -23166128.658 10 0 60968 37800.00000 0 5454008.496 9421690.027 -23043528.719 10 0 60968 38700.00000 0 3535623.586 11484892.709 -22472255.078 10 0 60968 39600.00000 0 1838848.607 13611131.627 -21463308.528 10 0 60968 40500.00000 0 393577.971 15736932.224 -20036240.821 10 0 60968 41400.00000 0 -782651.210 17795705.107 -18218779.559 10 0 60968 42300.00000 0 -1685166.260 19720424.737 -16046290.290 10 0 60968 43200.00000 0 -2322114.801 21446346.222 -13561085.955 10 0 60968 44100.00000 0 -2713871.999 22913645.501 -10811597.094 10 0 60968 45000.00000 0 -2891925.292 24069871.086 -7851419.361 10 0 60968 45900.00000 0 -2897285.224 24872103.376 -4738257.622 10 0 60968 46800.00000 0 -2778491.344 25288729.913 -1532788.267 10 0 60968 47700.00000 0 -2589299.561 25300761.351 1702536.749 10 0 60968 48600.00000 0 -2386150.929 24902632.663 4904719.377 10 0 60968 49500.00000 0 -2225531.069 24102456.238 8011453.076 10 0 60968 50400.00000 0 -2161333.796 22921717.016 10962343.117 10 0 60968 51300.00000 0 -2242341.926 21394423.711 13700084.907 10 0 60968 52200.00000 0 -2509932.764 19565753.114 16171576.851 10 0 60968 53100.00000 0 -2996105.633 17490245.836 18328946.073 10 0 60968 54000.00000 0 -3721914.677 15229630.311 20130467.545 10 0 60968 54900.00000 0 -4696372.589 12850366.965 21541359.754 10 0 60968 55800.00000 0 -5915870.774 10421015.535 22534442.770 10 0 60968 56700.00000 0 -7364139.674 8009535.116 23090647.546 10 0 60968 57600.00000 0 -9012750.391 5680628.533 23199368.242 10 0 60968 58500.00000 0 -10822136.371 3493240.156 22858652.303 10 0 60968 59400.00000 0 -12743092.533 1498309.336 22075225.968 10 0 60968 60300.00000 0 -14718689.803 -263129.373 20864355.671 10 0 60968 61200.00000 0 -16686526.067 -1761422.472 19249548.584 10 0 60968 62100.00000 0 -18581220.892 -2979291.110 17262098.171 10 0 60968 63000.00000 0 -20337051.460 -3912302.672 14940483.189 10 0 60968 63900.00000 0 -21890621.209 -4568802.316 12329631.042 10 0 60968 64800.00000 0 -23183451.238 -4969308.583 9480058.771 10 0 60968 65700.00000 0 -24164387.405 -5145399.097 6446907.081 10 0 60968 66600.00000 0 -24791723.300 -5138133.408 3288885.000 10 0 60968 67500.00000 0 -25034950.615 -4996079.167 67144.423 10 0 60968 68400.00000 0 -24876063.537 -4773024.401 -3155894.625 10 0 60968 69300.00000 0 -24310361.886 -4525471.907 -6317745.960 10 0 60968 70200.00000 0 -23346718.342 -4310021.113 -9357063.683 10 0 60968 71100.00000 0 -22007297.219 -4180747.780 -12214829.977 10 0 60968 72000.00000 0 -20326735.012 -4186692.369 -14835501.234 10 0 60968 72900.00000 0 -18350815.446 -4369563.695 -17168090.141 10 0 60968 73800.00000 0 -16134692.876 -4761755.740 -19167162.418 10 0 60968 74700.00000 0 -13740736.986 -5384762.720 -20793728.410 10 0 60968 75600.00000 0 -11236087.692 -6248060.928 -22016011.663 10 0 60968 76500.00000 0 -8690021.483 -7348506.485 -22810078.952 10 0 60968 77400.00000 0 -6171238.622 -8670276.472 -23160318.747 10 0 60968 78300.00000 0 -3745184.121 -10185358.093 -23059758.038 10 0 60968 79200.00000 0 -1471514.257 -11854567.329 -22510210.482 10 0 60968 80100.00000 0 598185.461 -13629056.012 -21522252.096 10 0 60968 81000.00000 0 2422335.369 -15452245.370 -20115024.117 10 0 60968 81900.00000 0 3970868.735 -17262105.702 -18315866.055 10 0 60968 82800.00000 0 5226247.740 -18993686.699 -16159785.536 10 0 60968 83700.00000 0 6183946.074 -20581791.947 -13688774.878 10 0 60968 84600.00000 0 6852378.501 -21963684.508 -10950987.674 10 0 60968 85500.00000 0 7252281.381 -23081708.850 -7999791.808 99